When you browse on this site, cookies collect data to enhance your experience and personalize the content and advertising you see.
Visit our Privacy Policy to learn more. By continuing to use the site, you agree to this use of cookies and data.

Hourly Weather Liege

Today, 2 July, Thursday

Time Temperature Precipitation Wind Pressure Humidity
00:00 +13°C° 0 mm 3 mps 748 mmHg 95%
01:00 +13°C° 0 mm 3 mps 748 mmHg 94%
02:00 +15°C° 0 mm 2 mps 748 mmHg 93%
03:00 +15°C° 0 mm 2 mps 748 mmHg 92%
04:00 +16°C° 0.1 mm 2 mps 748 mmHg 90%
05:00 +17°C° 0.1 mm 2 mps 748 mmHg 88%
06:00 +17°C° 0.1 mm 2 mps 748 mmHg 86%
07:00 +18°C° 0.5 mm 3 mps 748 mmHg 86%
08:00 +18°C° 0.5 mm 3 mps 748 mmHg 86%
09:00 +18°C° 0.5 mm 4 mps 749 mmHg 86%
10:00 +19°C° 0.7 mm 4 mps 749 mmHg 83%
11:00 +19°C° 0.7 mm 5 mps 749 mmHg 80%
12:00 +20°C° 0.7 mm 5 mps 749 mmHg 76%
13:00 +20°C° 0.3 mm 5 mps 749 mmHg 72%
14:00 +21°C° 0.3 mm 5 mps 749 mmHg 68%
15:00 +21°C° 0.3 mm 6 mps 749 mmHg 64%
16:00 +20°C° 0.3 mm 5 mps 750 mmHg 69%
17:00 +19°C° 0.3 mm 4 mps 750 mmHg 75%
18:00 +18°C° 0.3 mm 3 mps 750 mmHg 80%
19:00 +17°C° 0 mm 3 mps 751 mmHg 83%
20:00 +14°C° 0 mm 3 mps 751 mmHg 86%
21:00 +13°C° 0 mm 3 mps 751 mmHg 88%
22:00 +12°C° 0 mm 3 mps 752 mmHg 90%
23:00 +12°C° 0 mm 3 mps 752 mmHg 91%

Tomorrow, 3 July, Friday

Time Temperature Precipitation Wind Pressure Humidity
00:00 +11°C° 0 mm 3 mps 752 mmHg 92%
01:00 +11°C° 0 mm 3 mps 752 mmHg 93%
02:00 +11°C° 0 mm 3 mps 752 mmHg 94%
03:00 +10°C° 0 mm 3 mps 752 mmHg 94%
04:00 +11°C° 0 mm 4 mps 752 mmHg 93%
05:00 +12°C° 0 mm 4 mps 753 mmHg 91%
06:00 +13°C° 0 mm 5 mps 753 mmHg 90%
07:00 +14°C° 0 mm 5 mps 753 mmHg 86%
08:00 +15°C° 0 mm 5 mps 753 mmHg 81%
09:00 +17°C° 0 mm 5 mps 753 mmHg 77%
10:00 +17°C° 0 mm 5 mps 753 mmHg 74%
11:00 +19°C° 0 mm 5 mps 753 mmHg 72%
12:00 +20°C° 0 mm 5 mps 753 mmHg 69%
13:00 +20°C° 0 mm 5 mps 753 mmHg 67%
14:00 +21°C° 0 mm 5 mps 753 mmHg 65%
15:00 +21°C° 0 mm 6 mps 753 mmHg 62%
16:00 +21°C° 0 mm 5 mps 753 mmHg 65%
17:00 +20°C° 0 mm 4 mps 753 mmHg 68%
18:00 +20°C° 0 mm 4 mps 753 mmHg 71%
19:00 +18°C° 0 mm 3 mps 754 mmHg 75%
20:00 +16°C° 0 mm 3 mps 754 mmHg 80%
21:00 +14°C° 0 mm 3 mps 755 mmHg 85%
22:00 +13°C° 0 mm 3 mps 754 mmHg 86%
23:00 +13°C° 0 mm 3 mps 754 mmHg 87%

Day after tomorrow, 4 July, Saturday

Time Temperature Precipitation Wind Pressure Humidity
00:00 +13°C° 0 mm 4 mps 754 mmHg 88%
01:00 +13°C° 0 mm 4 mps 754 mmHg 86%
02:00 +13°C° 0 mm 4 mps 754 mmHg 84%
03:00 +13°C° 0 mm 4 mps 754 mmHg 82%
04:00 +14°C° 0 mm 4 mps 754 mmHg 83%
05:00 +14°C° 0 mm 4 mps 754 mmHg 84%
06:00 +14°C° 0 mm 4 mps 754 mmHg 84%
07:00 +15°C° 0.1 mm 4 mps 754 mmHg 84%
08:00 +16°C° 0.1 mm 5 mps 754 mmHg 85%
09:00 +16°C° 0.1 mm 5 mps 754 mmHg 85%
10:00 +17°C° 0 mm 5 mps 754 mmHg 81%
11:00 +17°C° 0 mm 5 mps 754 mmHg 78%
12:00 +19°C° 0 mm 5 mps 754 mmHg 74%
13:00 +19°C° 0 mm 6 mps 754 mmHg 74%
14:00 +19°C° 0 mm 6 mps 753 mmHg 74%
15:00 +19°C° 0 mm 6 mps 753 mmHg 73%
16:00 +19°C° 0 mm 5 mps 753 mmHg 75%
17:00 +19°C° 0 mm 5 mps 753 mmHg 77%
18:00 +19°C° 0 mm 4 mps 753 mmHg 79%
19:00 +19°C° 0 mm 4 mps 753 mmHg 81%
20:00 +19°C° 0 mm 4 mps 753 mmHg 82%
21:00 +19°C° 0 mm 5 mps 753 mmHg 84%
22:00 +19°C° 0.2 mm 5 mps 753 mmHg 87%
23:00 +19°C° 0.2 mm 5 mps 752 mmHg 89%

5 July, Sunday

Time Temperature Precipitation Wind Pressure Humidity
00:00 +19°C° 0.2 mm 5 mps 752 mmHg 92%
01:00 +17°C° 0.2 mm 5 mps 752 mmHg 93%
02:00 +17°C° 0.2 mm 5 mps 752 mmHg 94%
03:00 +17°C° 0.2 mm 5 mps 752 mmHg 95%
04:00 +17°C° 0.1 mm 5 mps 752 mmHg 95%
05:00 +17°C° 0.1 mm 5 mps 752 mmHg 95%
06:00 +17°C° 0.1 mm 5 mps 751 mmHg 95%
07:00 +17°C° 0 mm 6 mps 752 mmHg 93%
08:00 +19°C° 0 mm 6 mps 752 mmHg 91%
09:00 +20°C° 0 mm 7 mps 752 mmHg 89%
10:00 +20°C° 0.1 mm 7 mps 752 mmHg 86%
11:00 +21°C° 0.1 mm 7 mps 752 mmHg 83%
12:00 +22°C° 0.1 mm 8 mps 751 mmHg 80%
13:00 +22°C° 0.1 mm 7 mps 751 mmHg 77%
14:00 +22°C° 0.1 mm 7 mps 751 mmHg 75%
15:00 +23°C° 0.1 mm 7 mps 751 mmHg 73%
16:00 +22°C° 0.1 mm 7 mps 751 mmHg 76%
17:00 +21°C° 0.1 mm 6 mps 751 mmHg 78%
18:00 +21°C° 0.1 mm 6 mps 751 mmHg 81%
19:00 +20°C° 0 mm 6 mps 751 mmHg 81%
20:00 +20°C° 0 mm 6 mps 751 mmHg 81%
21:00 +20°C° 0 mm 6 mps 751 mmHg 81%
22:00 +19°C° 0.1 mm 6 mps 751 mmHg 84%
23:00 +19°C° 0.1 mm 5 mps 751 mmHg 87%

6 July, Monday

Time Temperature Precipitation Wind Pressure Humidity
00:00 +17°C° 0.1 mm 5 mps 751 mmHg 89%
01:00 +17°C° 0.1 mm 5 mps 751 mmHg 90%
02:00 +16°C° 0.1 mm 5 mps 751 mmHg 90%
03:00 +15°C° 0.1 mm 4 mps 751 mmHg 90%
04:00 +15°C° 0.1 mm 5 mps 751 mmHg 90%
05:00 +15°C° 0.1 mm 5 mps 751 mmHg 89%
06:00 +15°C° 0.1 mm 6 mps 751 mmHg 89%
07:00 +15°C° 0.1 mm 6 mps 751 mmHg 82%
08:00 +16°C° 0.1 mm 6 mps 751 mmHg 75%
09:00 +16°C° 0.1 mm 6 mps 751 mmHg 69%
10:00 +16°C° 0 mm 6 mps 751 mmHg 67%
11:00 +17°C° 0 mm 6 mps 752 mmHg 65%
12:00 +17°C° 0 mm 6 mps 752 mmHg 62%
13:00 +17°C° 0 mm 6 mps 752 mmHg 60%
14:00 +19°C° 0 mm 6 mps 752 mmHg 58%
15:00 +19°C° 0 mm 5 mps 752 mmHg 56%
16:00 +19°C° 0.1 mm 5 mps 753 mmHg 61%
17:00 +18°C° 0.1 mm 4 mps 753 mmHg 65%
18:00 +17°C° 0.1 mm 4 mps 753 mmHg 69%
19:00 +16°C° 0 mm 3 mps 753 mmHg 73%
20:00 +14°C° 0 mm 2 mps 754 mmHg 78%
21:00 +12°C° 0 mm 2 mps 754 mmHg 82%
22:00 +12°C° 0 mm 2 mps 754 mmHg 85%
23:00 +10°C° 0 mm 2 mps 754 mmHg 87%

7 July, Tuesday

Time Temperature Precipitation Wind Pressure Humidity
00:00 +10°C° 0 mm 2 mps 754 mmHg 90%
01:00 +10°C° 0 mm 2 mps 755 mmHg 91%
02:00 +9°C° 0 mm 2 mps 755 mmHg 93%
03:00 +9°C° 0 mm 2 mps 755 mmHg 94%
04:00 +10°C° 0 mm 2 mps 755 mmHg 91%
05:00 +13°C° 0 mm 1 mps 755 mmHg 88%
06:00 +14°C° 0 mm 1 mps 756 mmHg 84%
07:00 +15°C° 0.2 mm 1 mps 756 mmHg 79%
08:00 +18°C° 0.2 mm 1 mps 756 mmHg 73%
09:00 +18°C° 0.2 mm 2 mps 756 mmHg 68%
10:00 +18°C° 0.4 mm 2 mps 756 mmHg 67%
11:00 +19°C° 0.4 mm 2 mps 756 mmHg 67%
12:00 +19°C° 0.4 mm 3 mps 756 mmHg 67%
13:00 +19°C° 0.1 mm 3 mps 756 mmHg 63%
14:00 +20°C° 0.1 mm 3 mps 756 mmHg 59%
15:00 +20°C° 0.1 mm 3 mps 757 mmHg 55%
16:00 +20°C° 0 mm 3 mps 757 mmHg 59%
17:00 +19°C° 0 mm 3 mps 757 mmHg 62%
18:00 +19°C° 0 mm 3 mps 757 mmHg 66%
19:00 +17°C° 0 mm 2 mps 757 mmHg 71%
20:00 +15°C° 0 mm 2 mps 758 mmHg 77%
21:00 +13°C° 0 mm 2 mps 758 mmHg 83%
22:00 +12°C° 0 mm 2 mps 758 mmHg 83%
23:00 +12°C° 0 mm 1 mps 758 mmHg 84%
Show more